Temp
79 78 77 77 79 78 78 76 78 75 70 69 70 72 69 69 68 69 70 71 72 73 72 71 73 76 77 77 78 78 78 78 77
77 78 77 78 80 79 76 76 78 76 73 74 74 72 70 69 68 69 69 69 70 71 73 73 72 73 73 74 74 75 77 79 78
75 76 77 79 79 78 77 77 76 76 75 72 72 72 72 70 69 70 70 70 69 69 70 70 70 70 71 71 72 73 73 73 73
75 76 76 78 76 75 74 75 76 75 73 72 71 71 70 69 69 69 70 70 69 68 69 68 68 68 68 69 70 70 70 70 71
75 73 75 75 74 73 73 72 74 72 72 71 72 71 70 70 70 70 70 69 69 70 68 68 67 67 68 68 68 68 68 68 69
70 67 72 71 72 70 68 68 70 72 72 70 71 72 72 71 70 70 69 68 68 68 68 67 68 67 66 66 68 67 67 67 66
68 67 71 69 69 69 70 70 70 69 70 71 72 71 69 68 68 68 69 68 68 68 67 66 66 66 66 66 66 65 64 64 66
70 67 70 70 70 70 70 69 69 70 70 69 70 68 68 66 67 68 67 66 66 67 66 65 65 65 65 66 68 67 63 63 66
71 71 71 71 71 71 71 70 69 69 68 68 68 67 66 66 67 66 66 65 65 64 64 64 64 63 64 64 67 60 61 62 65
72 72 72 72 72 72 72 71 70 68 67 68 67 66 66 66 66 65 64 64 64 63 63 63 63 63 63 63 63 59 59 61 65
74 73 72 72 73 72 72 73 71 68 68 66 65 65 65 65 65 64 64 64 63 63 64 63 63 62 63 64 64 57 58 60 64
77 75 74 74 73 73 71 70 69 67 67 66 66 65 65 65 65 64 64 63 63 63 64 63 63 63 62 62 63 56 56 60 65
77 76 75 73 71 70 69 68 68 66 65 64 64 64 65 65 65 64 64 63 63 63 64 64 67 65 64 61 63 57 55 58 65
76 74 72 71 71 70 68 68 68 65 64 63 65 66 66 65 66 65 64 64 64 64 64 64 64 65 65 65 61 63 55 55 63
71 70 68 71 69 68 68 67 66 64 64 65 65 66 65 65 65 68 68 65 65 64 64 64 63 63 66 69 65 58 57 54 55
69 69 69 70 68 66 66 66 67 65 64 65 66 66 66 65 65 66 66 64 65 67 66 66 66 66 67 68 68 67 57 56 55
69 69 68 69 67 66 64 65 66 66 65 66 66 66 66 66 66 64 66 68 69 68 68 68 68 67 67 68 68 68 68 67 66
68 68 68 68 67 66 64 65 65 67 66 66 66 66 67 67 69 67 68 68 69 69 68 66 67 68 67 66 67 67 56 54 63
67 66 67 67 67 66 64 65 65 65 66 65 65 66 68 70 70 71 71 70 70 54 52 50 48 47 53 67 55 49 47 45 44
64 66 66 66 65 65 64 63 64 64 65 65 64 65 67 70 65 70 69 69 68 67 66 50 49 49 47 45 48 45 44 43 43
MSLP
1008.24 1008.83 1009.59 1010.15 1010.58 1011.28 1011.69 1012.37 1012.54 1013.03 1013.86 1014.77 1013.93 1013.80 1013.72 1013.83 1013.53 1016.48 1016.58 1016.36 1016.12 1015.76 1015.43 1015.35 1015.05 1014.53 1014.07 1013.62 1013.18 1013.00 1012.65 1012.39 1012.34
1008.28 1008.88 1009.64 1010.10 1010.50 1011.14 1011.79 1012.48 1012.82 1013.28 1013.71 1014.63 1014.10 1014.02 1013.65 1014.82 1015.13 1016.56 1016.74 1016.73 1016.71 1016.30 1016.10 1015.73 1015.52 1015.10 1014.63 1014.33 1013.74 1013.23 1012.68 1012.40 1012.37
1008.71 1009.28 1009.89 1010.32 1010.78 1011.33 1011.94 1012.74 1013.25 1013.36 1013.96 1014.61 1014.45 1014.52 1014.50 1015.07 1015.68 1016.16 1016.65 1016.91 1016.59 1016.48 1016.36 1016.26 1015.89 1015.34 1014.83 1014.50 1014.18 1013.85 1013.37 1012.91 1012.67
1008.94 1009.46 1010.00 1010.50 1011.15 1011.82 1012.40 1012.92 1013.36 1013.80 1014.58 1015.17 1015.62 1015.46 1015.23 1015.64 1016.10 1016.54 1017.10 1017.02 1016.86 1016.85 1016.89 1016.74 1016.17 1015.76 1015.38 1014.92 1014.57 1014.30 1013.98 1013.60 1013.17
1009.55 1010.17 1010.54 1011.10 1011.69 1012.23 1012.72 1013.28 1013.64 1014.32 1015.12 1015.60 1015.76 1015.64 1015.79 1015.93 1016.30 1016.71 1017.04 1017.10 1017.13 1017.19 1016.96 1016.69 1016.42 1016.06 1015.71 1015.26 1015.12 1014.81 1014.46 1013.95 1013.77
1010.13 1010.86 1011.19 1011.68 1012.24 1012.81 1013.25 1013.87 1014.32 1014.63 1015.22 1015.46 1015.34 1015.28 1015.38 1015.86 1016.36 1016.84 1017.20 1017.36 1017.22 1017.07 1017.19 1017.08 1016.47 1016.03 1015.63 1015.42 1015.28 1015.18 1014.91 1014.52 1014.16
1010.16 1010.91 1011.34 1011.99 1012.65 1013.35 1013.76 1014.13 1014.50 1014.84 1015.07 1015.27 1015.42 1015.76 1015.98 1016.31 1016.88 1017.17 1017.24 1017.15 1017.22 1017.23 1017.00 1016.91 1016.62 1016.13 1016.13 1016.02 1015.68 1015.71 1015.30 1014.85 1014.42
1009.89 1010.82 1011.49 1012.18 1012.74 1013.48 1014.09 1014.43 1014.69 1014.83 1015.10 1015.31 1015.58 1015.97 1016.41 1016.99 1017.38 1017.43 1017.46 1017.37 1017.30 1017.20 1017.14 1016.81 1017.07 1016.88 1016.73 1016.37 1015.84 1015.70 1015.43 1015.16 1014.40
1009.27 1010.22 1011.21 1012.16 1012.71 1013.41 1013.90 1014.33 1014.63 1015.22 1015.80 1016.36 1016.72 1017.18 1017.44 1017.56 1017.57 1017.35 1017.54 1017.44 1017.69 1017.75 1017.83 1017.71 1017.73 1017.41 1017.11 1016.66 1016.10 1016.14 1016.02 1015.50 1014.48
1008.77 1009.71 1010.74 1011.74 1012.62 1013.33 1014.05 1014.59 1015.16 1015.77 1016.41 1016.85 1017.11 1017.38 1017.52 1017.48 1017.57 1017.62 1017.88 1017.98 1018.15 1018.30 1018.36 1018.21 1017.98 1017.65 1017.15 1016.82 1016.69 1016.74 1016.34 1015.51 1014.64
1008.54 1009.54 1010.59 1011.49 1012.45 1013.51 1014.29 1014.86 1015.48 1016.08 1016.60 1016.90 1017.27 1017.54 1017.45 1017.53 1017.78 1017.83 1018.20 1018.36 1018.53 1018.73 1018.61 1018.24 1017.84 1017.58 1017.46 1017.13 1017.04 1017.09 1016.46 1015.61 1014.89
1008.16 1009.29 1010.44 1011.51 1012.58 1013.66 1014.39 1014.99 1015.77 1016.31 1016.63 1017.02 1017.34 1017.46 1017.50 1017.83 1018.04 1018.23 1018.40 1018.51 1018.61 1018.75 1018.41 1018.16 1018.08 1018.03 1017.80 1017.56 1017.28 1017.23 1016.74 1015.92 1015.11
1008.27 1009.53 1010.54 1011.64 1012.81 1014.04 1014.75 1015.47 1016.06 1016.44 1016.94 1017.40 1017.55 1017.70 1018.02 1018.31 1018.44 1018.55 1018.48 1018.44 1018.48 1018.62 1018.50 1018.36 1018.04 1017.93 1017.94 1017.81 1017.47 1017.42 1017.14 1016.60 1015.65
1008.84 1009.81 1010.92 1012.19 1013.15 1013.93 1015.02 1015.83 1016.28 1016.82 1017.42 1017.57 1017.81 1018.05 1018.21 1018.49 1018.62 1018.61 1018.55 1018.57 1018.60 1018.60 1018.48 1018.24 1017.99 1017.87 1017.67 1017.49 1017.57 1017.35 1017.32 1017.10 1016.24
1009.13 1010.18 1011.58 1012.46 1013.28 1014.36 1015.43 1016.22 1016.68 1017.00 1017.33 1017.67 1018.04 1018.12 1018.47 1018.73 1018.62 1018.41 1018.49 1018.63 1018.54 1018.44 1018.22 1017.93 1017.69 1017.37 1016.96 1016.95 1017.29 1017.36 1017.32 1017.21 1016.90
1009.69 1010.70 1011.73 1012.84 1013.76 1014.80 1015.75 1016.29 1016.54 1016.78 1017.29 1017.77 1018.03 1018.17 1018.39 1018.48 1018.54 1018.59 1018.58 1018.42 1018.19 1017.85 1017.75 1017.51 1017.26 1017.06 1016.79 1016.53 1016.73 1016.97 1017.12 1016.96 1016.76
1009.89 1011.21 1012.25 1013.14 1014.10 1014.93 1015.66 1016.26 1016.71 1017.00 1017.61 1017.93 1018.09 1018.13 1018.22 1018.34 1018.37 1018.39 1018.33 1018.10 1017.85 1017.65 1017.59 1017.47 1017.25 1016.95 1016.64 1016.56 1016.42 1016.44 1016.53 1016.58 1016.45
1010.50 1011.61 1012.64 1013.39 1014.05 1014.71 1015.53 1016.17 1016.70 1017.09 1017.64 1017.98 1018.11 1018.13 1018.14 1018.13 1018.03 1017.99 1017.82 1017.69 1017.59 1017.53 1017.61 1017.62 1017.47 1017.07 1016.97 1016.81 1016.38 1016.35 1016.81 1017.02 1016.68
1010.72 1011.72 1012.61 1013.53 1014.25 1014.94 1015.67 1016.30 1016.77 1017.21 1017.59 1017.83 1017.68 1017.78 1018.01 1017.92 1017.74 1017.59 1017.42 1017.18 1016.97 1017.20 1017.24 1017.31 1017.33 1017.31 1017.41 1016.84 1016.88 1016.75 1016.63 1016.54 1016.42
1011.24 1012.08 1012.70 1013.73 1014.48 1015.29 1016.04 1016.51 1016.91 1017.44 1017.75 1017.94 1017.81 1017.89 1018.11 1017.84 1017.57 1017.28 1017.08 1016.85 1016.76 1016.64 1016.55 1016.55 1016.54 1016.68 1016.76 1016.88 1016.66 1016.54 1016.33 1016.20 1015.94
Wind_Speed
14 15 12 10 8 6 7 8 6 7 5 6 6 10 13 13 18 4 4 6 5 5 5 6 8 7 7 8 7 6 4 3 3
13 12 12 11 8 7 7 7 6 4 9 10 12 13 14 13 11 7 5 5 4 5 6 6 8 7 8 9 8 8 7 4 5
9 10 10 9 6 5 5 5 6 8 10 11 12 13 13 11 11 8 6 5 7 7 7 7 7 8 8 8 9 9 8 6 7
10 9 8 7 6 6 6 8 10 13 12 12 10 11 13 11 10 9 6 6 8 7 6 6 8 9 9 8 8 9 8 9 8
10 8 9 9 9 8 8 8 10 12 11 10 10 11 11 11 10 8 7 7 7 6 8 8 7 7 8 8 8 9 10 10 10
9 11 12 11 10 9 10 10 11 12 11 10 10 10 12 11 10 8 7 7 7 7 6 6 8 8 9 9 9 11 11 11 11
10 10 12 11 11 11 11 10 11 11 11 9 9 10 11 10 9 8 7 7 7 7 7 8 8 10 9 8 8 9 11 12 12
13 13 12 12 13 11 11 11 10 10 10 10 11 10 9 8 5 6 7 8 9 9 10 10 9 8 8 8 7 10 13 12 12
16 16 15 14 13 12 11 11 11 10 9 8 7 6 6 6 6 8 9 9 9 10 9 9 8 9 10 10 8 17 18 16 10
17 17 17 16 14 12 11 11 10 9 8 7 7 7 6 6 7 8 9 9 8 8 8 8 9 9 10 11 11 17 20 20 10
17 16 16 15 13 12 11 11 10 9 8 8 7 6 7 7 7 7 7 7 7 7 6 8 9 11 11 11 11 17 21 20 12
16 16 15 14 13 13 12 11 9 8 8 7 6 7 8 6 5 5 5 6 6 6 6 8 8 7 9 10 11 16 19 16 11
16 16 15 15 15 13 12 10 9 9 8 6 5 5 5 4 4 5 5 5 5 5 4 5 4 6 6 7 9 12 16 15 9
16 16 17 17 15 13 11 9 8 8 7 6 5 4 4 3 3 4 4 4 3 3 4 4 5 5 4 5 6 9 11 13 10
19 19 19 17 14 12 11 9 9 9 8 6 4 5 5 4 3 2 3 2 2 3 4 4 5 6 6 3 4 4 8 9 11
19 20 17 15 14 14 11 10 9 10 8 6 5 5 5 3 2 1 2 4 4 4 3 5 5 5 5 6 4 4 1 6 9
18 17 17 15 15 14 12 9 8 8 7 6 5 5 3 0 2 2 3 3 3 4 5 5 5 6 6 6 6 4 5 6 6
17 16 15 14 13 12 12 10 9 8 6 5 4 2 1 2 1 2 1 1 2 3 2 3 5 5 5 6 7 7 4 4 7
17 17 15 13 12 12 11 10 9 7 6 5 4 3 3 1 1 1 1 2 3 9 9 7 9 11 8 5 8 12 12 8 7
17 16 15 13 13 12 10 9 8 6 5 4 4 4 3 3 3 3 3 3 3 5 4 11 10 7 8 11 13 11 12 11 9
Wind_Direction
154 170 167 162 170 135 117 129 129 91 57 96 99 95 73 61 77 16 24 29 20 17 21 16 360 4 7 6 5 356 335 290 274
164 163 166 176 179 168 155 159 166 126 85 112 110 105 95 91 92 105 80 50 36 36 23 7 0 359 360 356 354 355 349 353 337
147 152 162 168 158 138 143 114 85 110 105 93 90 87 92 94 93 83 69 59 54 45 27 14 7 7 7 360 355 354 356 360 11
153 158 161 160 132 106 101 100 107 107 103 102 98 99 91 92 86 81 73 59 48 38 32 17 20 14 7 5 3 9 1 352 353
125 123 138 133 124 126 113 95 121 115 115 109 106 99 96 86 82 77 67 58 56 46 35 25 23 17 16 16 13 8 1 355 348
126 127 132 126 123 115 112 116 121 116 113 101 85 76 74 72 66 66 65 58 45 42 30 18 21 22 24 18 14 6 3 356 349
139 135 133 126 126 130 126 124 118 108 96 91 85 75 70 69 64 59 51 47 41 32 28 24 22 22 19 14 19 8 0 352 335
142 143 143 143 142 139 138 128 114 99 81 64 56 57 60 66 71 65 55 47 37 31 26 30 22 20 19 14 16 15 360 347 331
154 153 153 152 145 146 138 126 114 104 98 93 94 100 99 100 82 63 51 48 53 50 50 51 47 42 35 30 24 7 0 352 343
163 161 156 156 154 146 141 131 117 108 105 116 106 94 87 76 75 75 71 68 58 50 46 50 48 42 36 35 25 8 2 360 7
167 164 161 155 150 142 138 128 120 124 123 110 109 107 95 83 77 73 74 66 62 59 52 49 43 39 35 33 31 8 5 0 9
173 164 157 151 144 145 141 132 124 118 112 111 109 86 71 67 73 88 91 81 70 52 45 44 40 36 32 28 28 14 12 2 8
160 154 147 146 144 143 131 128 137 128 123 125 130 128 122 117 105 94 90 68 53 35 25 31 19 33 32 37 21 24 14 6 12
152 147 144 143 144 139 134 141 128 139 156 163 133 136 129 124 115 92 58 42 34 357 344 345 353 348 1 22 27 20 13 14 13
145 141 141 147 140 138 138 144 158 152 158 137 136 121 133 139 123 63 42 360 343 323 325 322 330 336 334 357 353 32 21 3 16
145 146 146 145 143 144 153 158 163 155 139 152 157 156 148 128 69 339 309 306 313 312 324 334 346 342 341 346 349 326 27 357 356
145 146 148 148 149 152 150 152 154 138 149 156 161 155 154 234 273 317 297 280 299 323 338 347 355 356 359 351 354 346 345 347 342
143 145 147 151 156 150 144 145 151 151 149 156 156 139 196 237 271 305 330 330 304 312 313 319 330 333 333 329 340 3 332 316 326
147 148 147 150 146 143 142 150 151 152 156 168 162 183 201 215 275 317 323 324 324 214 250 248 233 251 254 299 252 287 293 288 273
144 145 139 144 144 139 146 149 151 151 163 178 177 202 222 231 253 278 289 302 318 324 317 232 249 253 215 223 270 286 283 291 295